| time (UTC) | temp F | wind direction | speed MPH | gust MPH | rain 1hr in | rain 24hr in | rain mn in | humidity % | barometer mb |
| 20260901030052 | 61 | 103 | 2.0 | 5.0 | 0.00 | 0.00 | 0.00 | 83 | 1017.4 |
| 20260901024554 | 61 | 53 | 3.0 | 8.0 | 0.00 | 0.00 | 0.00 | 84 | 1017.4 |
| 20260901023055 | 61 | 55 | 3.0 | 10.0 | 0.00 | 0.00 | 0.00 | 84 | 1017.3 |
| 20260901021552 | 60 | 49 | 2.0 | 8.0 | 0.00 | 0.00 | 0.00 | 84 | 1017.3 |
| 20260901020055 | 60 | 279 | 6.0 | 10.0 | 0.00 | 0.00 | 0.00 | 83 | 1017.7 |
| 20260901014602 | 61 | 153 | 0.0 | 5.0 | 0.00 | 0.00 | 0.00 | 82 | 1017.2 |
| 20260901013101 | 62 | 153 | 3.0 | 5.0 | 0.00 | 0.00 | 0.00 | 83 | 1017.2 |
| 20260901011551 | 61 | 182 | 2.0 | 7.0 | 0.00 | 0.00 | 0.00 | 84 | 1017.8 |
| 20260901010114 | 61 | 69 | 5.0 | 9.0 | 0.00 | 0.00 | 0.00 | 85 | 1017.9 |
| 20260901004556 | 58 | 306 | 4.0 | 7.0 | 0.00 | 0.00 | 0.00 | 84 | 1017.9 |
| 20260901003105 | 60 | 345 | 3.0 | 5.0 | 0.00 | 0.00 | 0.00 | 83 | 1017.7 |
| 20260901001558 | 61 | 78 | 0.0 | 6.0 | 0.00 | 0.00 | 0.00 | 84 | 1017.4 |
| 20260901000055 | 61 | 44 | 3.0 | 5.0 | 0.00 | 0.00 | 0.00 | 85 | 1017.5 |
| 20260831234602 | 60 | 0 | 0.0 | 4.0 | 0.00 | 0.00 | 0.00 | 86 | 1017.7 |
| 20260831233049 | 60 | 290 | 1.0 | 3.0 | 0.00 | 0.00 | 0.00 | 85 | 1017.6 |
| 20260831231558 | 60 | 294 | 2.0 | 4.0 | 0.00 | 0.00 | 0.00 | 85 | 1017.4 |
| 20260831230111 | 59 | 0 | 0.0 | 3.0 | 0.00 | 0.00 | 0.00 | 85 | 1017.4 |
| 20260831224553 | 59 | 300 | 2.0 | 4.0 | 0.00 | 0.00 | 0.00 | 84 | 1017.7 |
| 20260831223106 | 60 | 5 | 2.0 | 4.0 | 0.00 | 0.00 | 0.00 | 84 | 1017.6 |
| 20260831221556 | 60 | 0 | 0.0 | 3.0 | 0.00 | 0.00 | 0.00 | 83 | 1017.6 |
| 20260831220050 | 61 | 334 | 2.0 | 4.0 | 0.00 | 0.00 | 0.00 | 81 | 1017.6 |
| 20260831214608 | 63 | 334 | 2.0 | 4.0 | 0.00 | 0.00 | 0.00 | 80 | 1017.4 |
| 20260831213051 | 64 | 98 | 1.0 | 4.0 | 0.00 | 0.00 | 0.00 | 79 | 1017.5 |
| 20260831211552 | 64 | 33 | 1.0 | 4.0 | 0.00 | 0.00 | 0.00 | 79 | 1017.6 |
| 20260831210047 | 64 | 30 | 1.0 | 6.0 | 0.00 | 0.00 | 0.00 | 79 | 1017.6 |
| 20260831204554 | 65 | 242 | 1.0 | 3.0 | 0.00 | 0.00 | 0.00 | 78 | 1017.4 |
| 20260831203055 | 65 | 196 | 1.0 | 5.0 | 0.00 | 0.00 | 0.00 | 79 | 1017.3 |
| 20260831201551 | 65 | 272 | 1.0 | 6.0 | 0.00 | 0.00 | 0.00 | 77 | 1017.2 |
| 20260831200104 | 67 | 320 | 2.0 | 4.0 | 0.00 | 0.00 | 0.00 | 73 | 1017.0 |
| 20260831194624 | 68 | 49 | 3.0 | 4.0 | 0.00 | 0.00 | 0.00 | 72 | 1016.7 |
| 20260831193050 | 69 | 61 | 2.0 | 6.0 | 0.00 | 0.00 | 0.00 | 71 | 1016.7 |
| 20260831191556 | 69 | 48 | 2.0 | 5.0 | 0.00 | 0.00 | 0.00 | 71 | 1016.7 |
| 20260831184550 | 68 | 81 | 2.0 | 4.0 | 0.00 | 0.00 | 0.00 | 69 | 1016.6 |
| 20260831183108 | 68 | 87 | 1.0 | 6.0 | 0.00 | 0.00 | 0.00 | 70 | 1016.5 |
| 20260831181557 | 68 | 295 | 1.0 | 3.0 | 0.00 | 0.00 | 0.00 | 70 | 1016.3 |
| 20260831180109 | 68 | 294 | 2.0 | 5.0 | 0.00 | 0.00 | 0.00 | 68 | 1016.1 |
| 20260831174601 | 70 | 280 | 4.0 | 6.0 | 0.00 | 0.00 | 0.00 | 66 | 1015.9 |
| 20260831173058 | 72 | 259 | 3.0 | 4.0 | 0.00 | 0.00 | 0.00 | 64 | 1015.8 |
| 20260831171553 | 74 | 254 | 1.0 | 3.0 | 0.00 | 0.00 | 0.00 | 59 | 1015.9 |
| 20260831170104 | 75 | 254 | 3.0 | 5.0 | 0.00 | 0.00 | 0.00 | 55 | 1015.9 |
| 20260831164550 | 77 | 258 | 3.0 | 8.0 | 0.00 | 0.00 | 0.00 | 52 | 1015.8 |
| 20260831163051 | 78 | 236 | 3.0 | 9.0 | 0.00 | 0.00 | 0.00 | 48 | 1015.9 |
| 20260831161603 | 79 | 246 | 7.0 | 13.0 | 0.00 | 0.00 | 0.00 | 46 | 1015.8 |
| 20260831160058 | 80 | 250 | 9.0 | 17.0 | 0.00 | 0.00 | 0.00 | 44 | 1015.8 |
| 20260831154618 | 81 | 242 | 11.0 | 18.0 | 0.00 | 0.00 | 0.00 | 42 | 1015.8 |
| 20260831153052 | 80 | 218 | 8.0 | 15.0 | 0.00 | 0.00 | 0.00 | 45 | 1015.9 |
| 20260831151615 | 81 | 232 | 7.0 | 13.0 | 0.00 | 0.00 | 0.00 | 41 | 1016.0 |
| 20260831150055 | 83 | 211 | 12.0 | 18.0 | 0.00 | 0.00 | 0.00 | 39 | 1015.9 |
| 20260831144552 | 82 | 219 | 14.0 | 20.0 | 0.00 | 0.00 | 0.00 | 42 | 1016.1 |
| 20260831143050 | 81 | 228 | 6.0 | 11.0 | 0.00 | 0.00 | 0.00 | 42 | 1016.0 |
| 20260831141548 | 81 | 266 | 7.0 | 14.0 | 0.00 | 0.00 | 0.00 | 43 | 1016.2 |
| 20260831140058 | 81 | 229 | 9.0 | 16.0 | 0.00 | 0.00 | 0.00 | 43 | 1016.3 |
| 20260831134554 | 82 | 232 | 6.0 | 17.0 | 0.00 | 0.00 | 0.00 | 41 | 1016.3 |
| 20260831133052 | 84 | 219 | 14.0 | 20.0 | 0.00 | 0.00 | 0.00 | 38 | 1016.4 |
| 20260831131608 | 84 | 235 | 10.0 | 20.0 | 0.00 | 0.00 | 0.00 | 41 | 1016.3 |
| 20260831130101 | 84 | 232 | 13.0 | 22.0 | 0.00 | 0.00 | 0.00 | 38 | 1016.4 |
| 20260831124601 | 85 | 220 | 14.0 | 21.0 | 0.00 | 0.00 | 0.00 | 37 | 1016.5 |
| 20260831123103 | 83 | 236 | 11.0 | 21.0 | 0.00 | 0.00 | 0.00 | 39 | 1016.6 |
| 20260831121556 | 85 | 236 | 16.0 | 24.0 | 0.00 | 0.00 | 0.00 | 38 | 1016.5 |
| 20260831120056 | 84 | 234 | 13.0 | 20.0 | 0.00 | 0.00 | 0.00 | 40 | 1016.7 |
| 20260831114551 | 82 | 196 | 7.0 | 13.0 | 0.00 | 0.00 | 0.00 | 40 | 1016.8 |
| 20260831113103 | 86 | 211 | 12.0 | 20.0 | 0.00 | 0.00 | 0.00 | 38 | 1016.9 |
| 20260831111555 | 82 | 267 | 10.0 | 17.0 | 0.00 | 0.00 | 0.00 | 41 | 1016.9 |
| 20260831110107 | 84 | 246 | 15.0 | 22.0 | 0.00 | 0.00 | 0.00 | 40 | 1017.1 |
| 20260831104611 | 84 | 242 | 9.0 | 21.0 | 0.00 | 0.00 | 0.00 | 41 | 1017.2 |
| 20260831103054 | 84 | 226 | 9.0 | 20.0 | 0.00 | 0.00 | 0.00 | 40 | 1017.2 |
| 20260831101552 | 82 | 227 | 11.0 | 18.0 | 0.00 | 0.00 | 0.00 | 43 | 1017.3 |
| 20260831100108 | 83 | 251 | 11.0 | 19.0 | 0.00 | 0.00 | 0.00 | 43 | 1017.3 |
| 20260831094550 | 80 | 253 | 11.0 | 17.0 | 0.00 | 0.00 | 0.00 | 45 | 1017.4 |
| 20260831093106 | 83 | 256 | 5.0 | 12.0 | 0.00 | 0.00 | 0.00 | 47 | 1017.4 |
| 20260831091554 | 82 | 204 | 4.0 | 11.0 | 0.00 | 0.00 | 0.00 | 49 | 1017.4 |
| 20260831090051 | 82 | 221 | 3.0 | 9.0 | 0.00 | 0.00 | 0.00 | 48 | 1017.7 |
| 20260831084601 | 81 | 190 | 4.0 | 10.0 | 0.00 | 0.00 | 0.00 | 48 | 1017.8 |
| 20260831083054 | 80 | 207 | 4.0 | 9.0 | 0.00 | 0.00 | 0.00 | 50 | 1018.1 |
| 20260831081553 | 78 | 198 | 2.0 | 8.0 | 0.00 | 0.00 | 0.00 | 54 | 1018.2 |
| 20260831080107 | 77 | 190 | 4.0 | 8.0 | 0.00 | 0.00 | 0.00 | 56 | 1018.2 |
| 20260831074557 | 75 | 185 | 3.0 | 5.0 | 0.00 | 0.00 | 0.00 | 59 | 1018.3 |
| 20260831073103 | 73 | 196 | 2.0 | 5.0 | 0.00 | 0.00 | 0.00 | 63 | 1018.3 |
| 20260831071549 | 70 | 188 | 2.0 | 5.0 | 0.00 | 0.00 | 0.00 | 65 | 1018.4 |
| 20260831070114 | 68 | 132 | 1.0 | 4.0 | 0.00 | 0.00 | 0.00 | 69 | 1018.5 |
| 20260831064554 | 67 | 123 | 2.0 | 4.0 | 0.00 | 0.00 | 0.00 | 70 | 1018.7 |
| 20260831063054 | 66 | 75 | 1.0 | 3.0 | 0.00 | 0.00 | 0.00 | 70 | 1018.7 |
| 20260831061551 | 65 | 0 | 0.0 | 2.0 | 0.00 | 0.00 | 0.00 | 75 | 1018.9 |
| 20260831060103 | 62 | 0 | 0.0 | 0.0 | 0.00 | 0.00 | 0.00 | 83 | 1018.9 |
| 20260831054555 | 59 | 0 | 0.0 | 1.0 | 0.00 | 0.00 | 0.00 | 88 | 1019.0 |
| 20260831053101 | 55 | 0 | 0.0 | 0.0 | 0.00 | 0.00 | 0.00 | 89 | 1019.0 |
| 20260831051556 | 53 | 0 | 0.0 | 0.0 | 0.00 | 0.00 | 0.00 | 90 | 1018.9 |
| 20260831050056 | 51 | 0 | 0.0 | 1.0 | 0.00 | 0.00 | 0.00 | 89 | 1018.8 |
| 20260831044610 | 49 | 0 | 0.0 | 2.0 | 0.00 | 0.00 | 0.00 | 89 | 1018.8 |
| 20260831043058 | 47 | 0 | 0.0 | 2.0 | 0.00 | 0.00 | 0.00 | 89 | 1018.8 |
| 20260831041559 | 47 | 0 | 0.0 | 1.0 | 0.00 | 0.00 | 0.00 | 88 | 1018.8 |
| 20260831040052 | 47 | 292 | 0.0 | 2.0 | 0.00 | 0.00 | 0.00 | 88 | 1018.8 |
| 20260831034557 | 47 | 0 | 1.0 | 3.0 | 0.00 | 0.00 | 0.00 | 88 | 1018.8 |
| 20260831033049 | 48 | 290 | 2.0 | 4.0 | 0.00 | 0.00 | 0.00 | 88 | 1018.8 |
| 20260831031556 | 48 | 224 | 1.0 | 4.0 | 0.00 | 0.00 | 0.00 | 88 | 1018.9 |